GBTWP-2 Weather Reports


time (UTC)temp
C
wind
direction
speed
KPH
gust
KPH
rain 1hr
cm
rain 24hr
cm
rain mn
cm
humidity
%
barometer
mb
20260509043002 5 35 0.0 0.0 0.00 0.00 0.00 76 1009.4
20260509041502 6 37 0.0 0.0 0.00 0.00 0.00 73 1009.4
20260509041002 6 32 0.0 0.0 0.00 0.00 0.00 75 1009.4
20260509040501 5 27 0.0 0.0 0.00 0.00 0.00 76 1009.4
20260509035502 6 27 0.0 0.0 0.00 0.00 0.00 73 1009.7
20260509033001 6 27 0.0 0.0 0.00 0.00 0.00 72 1009.7
20260509032502 6 26 0.0 0.0 0.00 0.00 0.00 73 1009.7
20260509032002 6 26 0.0 0.0 0.00 0.00 0.00 71 1009.8
20260509031502 6 26 0.0 0.0 0.00 0.00 0.00 68 1009.8
20260509031002 6 26 0.0 0.0 0.00 0.00 0.00 68 1009.9
20260509030502 7 15 0.0 0.0 0.00 0.00 0.00 70 1009.9
20260509030001 7 2 0.0 0.0 0.00 0.00 0.00 67 1009.9
20260509025502 7 2 0.0 0.0 0.00 0.00 0.00 68 1009.8
20260509024001 7 2 0.0 0.0 0.00 0.00 0.00 65 1010.0
20260509023001 8 2 0.0 0.0 0.00 0.00 0.00 67 1010.0
20260509022502 8 2 0.0 0.0 0.00 0.00 0.00 67 1010.1
20260509021502 8 2 0.0 0.0 0.00 0.00 0.00 60 1010.0
20260509021001 8 2 0.0 0.0 0.00 0.00 0.00 55 1010.0
20260509020502 8 2 0.0 0.0 0.00 0.00 0.00 56 1010.1
20260509020002 8 2 0.0 0.0 0.00 0.00 0.00 55 1010.0
20260509015501 9 2 0.0 0.0 0.00 0.00 0.00 60 1009.9
20260509014002 10 2 0.0 0.0 0.00 0.00 0.00 56 1009.9
20260509013501 10 2 0.0 0.0 0.00 0.00 0.00 52 1009.9
20260509013002 10 2 0.0 0.0 0.00 0.00 0.00 51 1009.9
20260509012501 11 2 0.0 0.0 0.00 0.00 0.00 46 1009.6
20260509011501 11 2 0.0 0.0 0.00 0.00 0.00 44 1009.7
20260509011002 12 2 0.0 0.0 0.00 0.00 0.00 44 1009.7
20260509010501 12 2 0.0 0.0 0.00 0.00 0.00 43 1009.7
20260509010002 12 5 0.0 0.0 0.00 0.00 0.00 40 1009.5
20260509005501 12 5 0.0 0.0 0.00 0.00 0.00 41 1009.6
20260509004501 12 345 0.0 0.0 0.00 0.00 0.00 44 1009.5
20260509003502 13 13 0.0 0.0 0.00 0.00 0.00 38 1009.5
20260509003001 13 13 0.0 0.0 0.00 0.00 0.00 40 1009.3
20260509002502 14 14 0.0 0.0 0.00 0.00 0.00 36 1009.3
20260509001502 14 12 0.0 0.0 0.00 0.00 0.00 36 1009.4
20260508234501 16 345 0.0 0.0 0.00 0.00 0.00 34 1009.1
20260508234002 16 349 0.0 0.0 0.00 0.00 0.00 31 1009.2
20260508233002 17 325 3.2 3.2 0.00 0.00 0.00 31 1009.1
20260508232502 17 345 0.0 0.0 0.00 0.00 0.00 31 1009.1
20260508225502 17 343 1.6 3.2 0.00 0.00 0.00 29 1009.2
20260508224502 17 348 0.0 0.0 0.00 0.00 0.00 28 1009.3
20260508223502 17 351 0.0 0.0 0.00 0.00 0.00 33 1009.3
20260508223002 17 320 1.6 3.2 0.00 0.00 0.00 33 1009.5
20260508222501 17 341 1.6 3.2 0.00 0.00 0.00 33 1009.4
20260508222002 17 233 3.2 6.4 0.00 0.00 0.00 30 1009.5
20260508221501 17 247 1.6 3.2 0.00 0.00 0.00 32 1009.4
20260508221002 17 163 4.8 6.4 0.00 0.00 0.00 31 1009.3
20260508215501 17 333 1.6 3.2 0.00 0.00 0.00 31 1009.5
20260508215002 17 239 1.6 3.2 0.00 0.00 0.00 32 1009.5
20260508214501 17 323 0.0 0.0 0.00 0.00 0.00 34 1009.7
20260508214002 17 321 3.2 4.8 0.00 0.00 0.00 33 1009.5
20260508212502 16 18 0.0 0.0 0.00 0.00 0.00 29 1009.6
20260508212001 16 80 3.2 4.8 0.00 0.00 0.00 30 1009.5
20260508211502 16 322 1.6 3.2 0.00 0.00 0.00 32 1009.8
20260508210502 17 142 1.6 3.2 0.00 0.00 0.00 32 1010.0
20260508210001 17 274 6.4 8.0 0.00 0.00 0.00 29 1009.9
20260508205502 17 79 1.6 3.2 0.00 0.00 0.00 28 1010.0
20260508204502 17 321 1.6 3.2 0.00 0.00 0.00 32 1009.9
20260508204001 17 143 3.2 6.4 0.00 0.00 0.00 31 1009.9
20260508203502 17 304 3.2 4.8 0.00 0.00 0.00 30 1009.8
20260508202502 17 313 0.0 0.0 0.00 0.00 0.00 33 1010.3
20260508202003 17 254 3.2 3.2 0.00 0.00 0.00 34 1010.3
20260508201501 17 322 1.6 3.2 0.00 0.00 0.00 32 1010.5
20260508201002 17 316 3.2 4.8 0.00 0.00 0.00 31 1010.8
20260508195502 16 160 8.0 8.0 0.00 0.00 0.00 32 1011.1
20260508195001 16 4 0.0 0.0 0.00 0.00 0.00 33 1011.1
20260508194502 16 214 1.6 3.2 0.00 0.00 0.00 33 1011.3
20260508194001 16 309 4.8 6.4 0.00 0.00 0.00 35 1011.2
20260508193502 16 291 1.6 3.2 0.00 0.00 0.00 35 1011.3
20260508192001 16 33 0.0 0.0 0.00 0.00 0.00 32 1011.5
20260508191502 16 222 4.8 6.4 0.00 0.00 0.00 31 1011.5
20260508190502 16 272 0.0 0.0 0.00 0.00 0.00 37 1011.5
20260508190001 16 315 3.2 4.8 0.00 0.00 0.00 35 1011.7
20260508185502 15 18 0.0 0.0 0.00 0.00 0.00 31 1011.6
20260508184501 15 281 0.0 0.0 0.00 0.00 0.00 32 1011.9
20260508184002 16 220 6.4 8.0 0.00 0.00 0.00 33 1011.8
20260508183002 16 331 4.8 6.4 0.00 0.00 0.00 30 1011.9
20260508182501 16 293 4.8 6.4 0.00 0.00 0.00 32 1011.8
20260508181501 15 209 3.2 4.8 0.00 0.00 0.00 32 1012.0
20260508180502 15 19 0.0 0.0 0.00 0.00 0.00 31 1012.0
20260508180001 15 29 0.0 0.0 0.00 0.00 0.00 34 1012.3
20260508175502 15 344 3.2 4.8 0.00 0.00 0.00 34 1012.3
20260508175001 15 165 0.0 0.0 0.00 0.00 0.00 35 1012.6
20260508174502 15 213 4.8 4.8 0.00 0.00 0.00 32 1012.4
20260508173502 14 129 3.2 3.2 0.00 0.00 0.00 31 1012.8
20260508173002 14 98 4.8 4.8 0.00 0.00 0.00 32 1012.8
20260508171501 15 222 3.2 4.8 0.00 0.00 0.00 32 1012.9
20260508165002 13 308 1.6 3.2 0.00 0.00 0.00 36 1013.2
20260508164001 13 202 4.8 4.8 0.00 0.00 0.00 30 1013.6
20260508163001 13 207 6.4 6.4 0.00 0.00 0.00 32 1013.6
20260508162002 13 168 1.6 3.2 0.00 0.00 0.00 30 1013.6
20260508161001 13 175 3.2 6.4 0.00 0.00 0.00 30 1013.7
20260508155001 13 187 3.2 4.8 0.00 0.00 0.00 34 1013.8
20260508154502 12 7 0.0 0.0 0.00 0.00 0.00 38 1013.8
20260508154002 13 139 4.8 6.4 0.00 0.00 0.00 33 1013.8
20260508153502 13 147 3.2 4.8 0.00 0.00 0.00 35 1013.8
20260508153002 12 280 3.2 4.8 0.00 0.00 0.00 39 1013.8
20260508152002 12 148 1.6 3.2 0.00 0.00 0.00 35 1013.8
20260508151501 12 116 4.8 6.4 0.00 0.00 0.00 38 1013.9
20260508151002 12 228 3.2 4.8 0.00 0.00 0.00 37 1014.0
20260508150501 12 240 3.2 4.8 0.00 0.00 0.00 33 1014.0
20260508145502 12 157 3.2 4.8 0.00 0.00 0.00 42 1014.0
20260508145002 12 183 3.2 4.8 0.00 0.00 0.00 42 1014.0
20260508144502 11 2 0.0 0.0 0.00 0.00 0.00 47 1014.2
20260508144002 11 128 3.2 4.8 0.00 0.00 0.00 43 1014.1
20260508142502 11 228 0.0 0.0 0.00 0.00 0.00 51 1014.2
20260508142001 11 245 1.6 4.8 0.00 0.00 0.00 48 1014.3
20260508141502 11 184 3.2 3.2 0.00 0.00 0.00 45 1014.4
20260508140502 11 4 0.0 0.0 0.00 0.00 0.00 45 1014.5
20260508140001 10 256 1.6 3.2 0.00 0.00 0.00 49 1014.6
20260508134501 10 32 0.0 0.0 0.00 0.00 0.00 55 1014.4
20260508133501 10 353 0.0 0.0 0.00 0.00 0.00 55 1014.3
20260508131502 10 155 3.2 3.2 0.00 0.00 0.00 59 1014.6
20260508131002 10 144 0.0 0.0 0.00 0.00 0.00 57 1014.6
20260508130502 9 345 0.0 0.0 0.00 0.00 0.00 58 1014.5
20260508125001 8 332 0.0 0.0 0.00 0.00 0.00 64 1014.6
20260508124001 8 121 0.0 0.0 0.00 0.00 0.00 68 1014.5
20260508123502 8 78 0.0 0.0 0.00 0.00 0.00 68 1014.6
20260508123001 7 276 0.0 0.0 0.00 0.00 0.00 71 1014.6
20260508122502 7 54 0.0 0.0 0.00 0.00 0.00 74 1014.6
20260508122002 7 97 0.0 0.0 0.00 0.00 0.00 75 1014.5
20260508121502 7 103 0.0 0.0 0.00 0.00 0.00 77 1014.4
20260508120501 6 68 0.0 0.0 0.00 0.00 0.00 78 1014.2
20260508115001 5 67 0.0 0.0 0.00 0.00 0.00 82 1013.9
20260508114502 5 62 0.0 0.0 0.00 0.00 0.00 87 1014.0
20260508114001 4 61 0.0 0.0 0.00 0.00 0.00 90 1014.0
20260508113002 3 61 0.0 0.0 0.00 0.00 0.00 94 1014.0
20260508112501 2 62 0.0 0.0 0.00 0.00 0.00 95 1013.8
20260508112002 2 59 0.0 0.0 0.00 0.00 0.00 95 1013.8
20260508111501 1 59 0.0 0.0 0.00 0.00 0.00 95 1014.0
20260508111002 1 59 0.0 0.0 0.00 0.00 0.00 95 1013.9
20260508110502 1 59 0.0 0.0 0.00 0.00 0.00 95 1013.9
20260508110001 1 59 0.0 0.0 0.00 0.00 0.00 95 1013.8
20260508105502 1 59 0.0 0.0 0.00 0.00 0.00 96 1013.8
20260508105001 1 59 0.0 0.0 0.00 0.00 0.00 95 1013.8
20260508104502 1 59 0.0 0.0 0.00 0.00 0.00 95 1013.9
20260508103002 1 59 0.0 0.0 0.00 0.00 0.00 95 1013.8
20260508102501 1 59 0.0 0.0 0.00 0.00 0.00 95 1013.9
20260508102002 1 59 0.0 0.0 0.00 0.00 0.00 95 1013.8
20260508101501 1 59 0.0 0.0 0.00 0.00 0.00 95 1013.8
20260508101002 1 59 0.0 0.0 0.00 0.00 0.00 95 1013.9
20260508100501 1 59 0.0 0.0 0.00 0.00 0.00 95 1013.8
20260508095501 1 59 0.0 0.0 0.00 0.00 0.00 95 1013.9
20260508093502 1 59 0.0 0.0 0.00 0.00 0.00 95 1013.9
20260508093001 1 59 0.0 0.0 0.00 0.00 0.00 94 1013.8
20260508092502 1 59 0.0 0.0 0.00 0.00 0.00 94 1013.9
20260508092001 1 58 0.0 0.0 0.00 0.00 0.00 94 1014.0
20260508091502 2 57 0.0 0.0 0.00 0.00 0.00 94 1014.0
20260508090502 2 48 0.0 0.0 0.00 0.00 0.00 94 1013.9
20260508090001 2 47 0.0 0.0 0.00 0.00 0.00 94 1014.0
20260508085002 2 20 0.0 0.0 0.00 0.00 0.00 94 1014.1
20260508084002 2 20 0.0 0.0 0.00 0.00 0.00 93 1014.0
20260508083501 2 20 0.0 0.0 0.00 0.00 0.00 93 1014.1
20260508083002 2 20 0.0 0.0 0.00 0.00 0.00 93 1014.2
20260508081002 3 19 0.0 0.0 0.00 0.00 0.00 91 1014.0
20260508080002 3 19 0.0 0.0 0.00 0.00 0.00 90 1014.1
20260508075502 3 20 0.0 0.0 0.00 0.00 0.00 90 1014.2
20260508074501 3 12 0.0 0.0 0.00 0.00 0.00 89 1014.1
20260508074002 3 12 0.0 0.0 0.00 0.00 0.00 88 1014.0
20260508070002 5 49 0.0 0.0 0.00 0.00 0.00 81 1013.9
20260508065501 5 55 0.0 0.0 0.00 0.00 0.00 82 1013.9
20260508064501 5 48 0.0 0.0 0.00 0.00 0.00 83 1014.0
20260508064002 5 53 0.0 0.0 0.00 0.00 0.00 81 1014.0
20260508063502 5 46 0.0 0.0 0.00 0.00 0.00 81 1014.1
20260508055502 5 8 0.0 0.0 0.00 0.00 0.00 85 1014.7
20260508055001 5 8 0.0 0.0 0.00 0.00 0.00 86 1014.6
20260508054001 5 30 0.0 0.0 0.00 0.00 0.00 85 1014.4
20260508053502 5 0 0.0 0.0 0.00 0.00 0.00 84 1014.9
20260508052502 5 0 0.0 0.0 0.00 0.00 0.00 83 1014.7
20260508052002 5 0 0.0 0.0 0.00 0.00 0.00 82 1014.5
20260508051502 5 5 0.0 0.0 0.00 0.00 0.00 81 1014.2
20260508051002 6 42 0.0 0.0 0.00 0.00 0.00 77 1014.1
20260508050003 6 358 0.0 0.0 0.00 0.00 0.00 76 1014.9
20260508045501 6 358 0.0 0.0 0.00 0.00 0.00 78 1014.9
20260508045002 6 359 0.0 0.0 0.00 0.00 0.00 76 1014.3
20260508044501 6 54 0.0 0.0 0.00 0.00 0.00 76 1014.3
20260508044002 6 55 0.0 0.0 0.00 0.00 0.00 75 1014.2
20260508043502 6 54 0.0 0.0 0.00 0.00 0.00 76 1014.4